Simultaneous Nadir Overpasses (SNOs) Predictions

Prediction of SNOs between GOES-15 and TERRA Satellite Orbit:

Table of predicted SNOs for the next 14.0 days since TLE Epoch: 10/29/2016
Index Date Time (GOES-15) GOES-15 Lat,Lon TERRA Lat,Lon Distance(km) Time Diff (sec)
1 10/30/2016 07:10:03 0.28,-134.71 1.20,-130.42 487.31 80
2 10/30/2016 19:33:57 -0.27,-134.71 -0.07,-135.57 97.98 80
3 11/01/2016 19:21:46 -0.27,-134.80 -0.73,-132.62 247.33 80
4 11/02/2016 07:43:10 0.25,-134.84 -0.38,-137.81 338.41 80
5 11/04/2016 07:28:19 0.25,-134.91 0.29,-134.86 6.79 80
6 11/06/2016 07:16:07 0.25,-134.98 0.91,-131.90 349.68 80
7 11/06/2016 19:40:02 -0.24,-134.97 0.22,-137.05 236.96 80
8 11/08/2016 19:25:11 -0.24,-135.03 -0.46,-134.10 106.21 80
9 11/09/2016 07:49:14 0.22,-135.07 -0.69,-139.28 479.27 80
10 11/10/2016 19:12:59 -0.24,-135.09 -1.09,-131.14 448.66 80
11 11/11/2016 07:37:02 0.22,-135.13 -0.06,-136.32 137.05 80




NCC Satellite Simultaneous Nadir Overpasses (SNOs) Prediction Service
